User: anonymous   Login
Location: Caltech
(34.1382°N, 118.1253°W)
Time: 13:20:16
(UTC-07:00)
Language:

ALOS - Orbit

View from above orbital plane
View from above orbital plane
View from above satellite
View from above satellite

Ground track
Ground track

The orbit data is extracted from the following two-line orbital elements,

1 28931U 06002A   17114.97263797 +.00000285 +00000-0 +65156-4 0  9997
2 28931 097.8480 144.9782 0002442 100.8168 259.3310 14.62341266599687
Epoch (UTC): 24 April 2017 23:20:35
Eccentricity: 0.0002442
inclination: 97.8480°
perigee height: 684 km
apogee height: 687 km
right ascension of ascending node: 144.9782°
argument of perigee: 100.8168°
revolutions per day: 14.62341266
mean anomaly at epoch: 259.3310°
orbit number at epoch: 59968

The dashed part of the orbit path shows where the satellite is in the earth's shadow,  

DLR